Regional Weather Roundup
Issued by NWS Green Bay, WI

Home | Current Version | Previous Version | Graphics & Text | Print | Product List | Glossary Off
Versions: 1 2 3 4 5 6 7 8 9 10 11 12 13 14 15 16 17 18 19 20 21 22 23 24 25 26 27 28 29 30 31 32 33 34 35 36 37 38 39 40 41 42 43 44 45 46 47 48 49 50

000
ASUS43 KGRB 230111
RWRGRB

NORTH-CENTRAL AND NORTHEAST WISCONSIN REGIONAL WEATHER ROUNDUP
NATIONAL WEATHER SERVICE GREEN BAY WI
800 PM CDT FRI MAY 22 2015

WIZ005-009-010>012-018-019-230200-
NORTH CENTRAL WISCONSIN

CITY           SKY/WX    TMP DP  RH WIND       PRES   REMARKS
IRONWOOD       CLEAR     64  28  25 S6        30.15F
MANITOWISH WTR CLEAR     60  29  31 NE3       30.20F
ARBOR VITAE    CLEAR     63  25  23 NE3       30.20F
EAGLE RIVER    CLEAR     62  21  21 CALM      30.20F
LAND O LAKES   CLEAR     62  22  21 CALM      30.22S
RHINELANDER    CLEAR     64  27  24 CALM      30.21S
PHILLIPS       CLEAR     65  32  29 CALM      30.19R
ANTIGO         CLEAR     62  38  42 CALM      30.21R
TOMAHAWK       CLEAR     61  32  33 CALM      30.20S
MERRILL        CLEAR    N/A N/A N/A CALM      30.21R
$$

WIZ013-073-230200-
NORTHEAST WISCONSIN

CITY           SKY/WX    TMP DP  RH WIND       PRES   REMARKS
IRON MOUNTAIN  CLEAR     58  33  39 SE9       30.21R
MARINETTE      CLEAR     50  30  46 SE9       30.23F
OCONTO         CLEAR     53  32  44 SE8       30.22S
$$

WIZ017-030-035>037-045-230200-
CENTRAL WISCONSIN

CITY           SKY/WX    TMP DP  RH WIND       PRES   REMARKS
MEDFORD        CLEAR     64  35  33 W3        30.21S
WAUSAU         CLEAR     64  35  34 SW7       30.19R
MOSINEE        CLEAR     61  37  41 SW6       30.22S
MARSHFIELD     PTCLDY    66  33  29 CALM      30.21R
WISC RAPIDS    LGT RAIN  66  32  28 NE3       30.22R
STEVENS POINT  CLEAR     64  34  33 CALM      30.22R
WAUPACA        CLEAR     67  33  27 CALM      30.21S
SHAWANO        CLEAR     67  32  27 W3        30.19S
CLINTONVILLE   CLEAR     66  32  28 W3        30.20S
$$

WIZ038-039-048-051-230200-
FOX VALLEY

CITY           SKY/WX    TMP DP  RH WIND       PRES   REMARKS
NWS GREEN BAY  CLEAR     57  31  37 S10       30.23R
APPLETON       PTCLDY    61  32  33 S12       30.23R
OSHKOSH        PTCLDY    59  34  39 SE10      30.22R
FOND DU LAC    PTCLDY    56  30  37 SE9       30.24R
$$

WIZ022-050-052-230200-
EAST CENTRAL WISCONSIN

CITY           SKY/WX    TMP DP  RH WIND       PRES   REMARKS
STURGEON BAY   CLEAR     48  21  34 SE8       30.27S
MANITOWOC      PTCLDY    49  26  41 S9        30.26S
SHEBOYGAN      PTCLDY    50  25  37 S7        30.26S
$$

LMZ563-521-522-541>543-230200-
LAKESHORE

STATION/POSITION TIME  TEMP    WIND        PRES    VSBY  WAVE
                       AIR SEA DIR/SP/G                  HT/PER
                 (UTC) (F)     (DEG/KT/KT) (MB)    (MI)  (FT/S)
SHEBOYGAN LKSHOR 0100          190/ 11/ 11 1025.5R
KEWAUNEE LKSHORE 0000   47     170/ 10/ 11 1023.8F
NORTHPORT PIER   0000   49     160/  7/ 11 1024.7S
N MID LAKE BUOY  0050   40 36  200/  6/  8 1025.7R         0
SISTER BAY LKSHO 0002   51     140/ 11/ 14   N/A
CHAMBERS ISLAND  0000   54     140/  4/ 11 1024.7R
MENOMINEE LKSHOR 0000   51     140/ 12/ 13 1024.6R
$$


USA.gov is the U.S. government's official web portal to all federal, state and local government web resources and services.